Location: Newark
(41.8922°N, 9.0050°E)
Time: 01:55:06
(UTC+00:00)

ISS - Pass Details

Date: 24 January 2020
Orbit: 415 x 422 km, 51.6° (Epoch: 22 February)

Event Time Altitude Azimuth Distance (km) Brightness Sun altitude
Rises 17:19:03 0° 243° (WSW) 2,369 2.1 -9.7°
Reaches altitude 10° 17:21:10 10° 248° (WSW) 1,506 0.7 -10.0°
Maximum altitude 17:24:30 59° 328° (NNW) 493 -3.4 -10.6°
Enters shadow 17:27:12 15° 47° (NE) 1,251 -1.9 -11.1°
